Flag for U.S.A. Weather past 2 weeks in Madison, Wisconsin, U.S.A.

Now
65 °F

Partly sunny.


Feels Like: 65 °F
Forecast: 56 / 71 °F
Wind: 13 mph from North

Location: Dane County Regional-Truax Field

Current Time: Jul 7, 2015 at 12:52:33 PM

Latest Report: Jul 7, 2015 at 11:53 AM


Visibility: 6 mi

Pressure: 30.04 "Hg

Humidity: 63%

Dew point: 52 °F

Location of MadisonLocation

Historic Weather in Madison — Graph

°F

Madison temperature yesterday

Maximum temperature yesterday: 79 °F (at 3:53 PM)
Minimum temperature yesterday: 63 °F (at 11:53 PM)
Average temperature yesterday: 73 °F

Past Weeks' High & Low Weather Summary

 TemperatureHumidityPressure
High83 °F (Jul 5, 2:53 PM)94% (Jul 6, 10:53 PM)30.14 "Hg (Jul 6, 10:53 PM)
Low48 °F (Jul 2, 5:53 AM)33% (Jun 27, 4:53 PM)29.64 "Hg (Jun 22, 1:53 PM)
Average68 °F71%29.95 "Hg
* Reported Jun 22 11:53 AM — Jul 7 11:53 AM, Madison, Weather by CustomWeather, © 2015

Note: Actual official high and low records may vary slightly from our data, if they occured in-between our weather recording intervals... More about our weather records

Advertising

Madison weather history for previous 24 hours

 ConditionsComfort  
Time TempWeatherWind HumidityBarometerVisibility
11:53 AM
Tue, Jul 7
65 °FPartly sunny.13 mph63%30.04 "Hg6 mi
10:53 AM67 °FBroken clouds.12 mph63%30.03 "Hg5 mi
9:59 AM65 °FBroken clouds.10 mph70%30.04 "Hg3 mi
8:53 AM62 °FPartly sunny.13 mph78%30.01 "Hg3 mi
7:53 AM61 °FMostly cloudy.8 mph83%29.99 "Hg2 mi
6:53 AM59 °FMore clouds than sun.10 mph90%29.98 "Hg2 mi
5:53 AM60 °FMostly cloudy.10 mph90%29.96 "Hg1 mi
4:53 AM60 °FFog.6 mph90%29.92 "Hg3 mi
3:53 AM62 °FOvercast.12 mph83%29.91 "Hg3 mi
2:53 AM62 °FOvercast.9 mph83%29.91 "Hg3 mi
1:53 AM62 °FFog.N/A86%29.89 "Hg4 mi
12:53 AM62 °FFog.13 mph86%29.88 "Hg4 mi
11:53 PM
Mon, Jul 6
63 °FFog.12 mph87%29.87 "Hg6 mi
10:53 PM65 °FLight rain. Mostly cloudy.10 mph94%29.86 "Hg7 mi
10:02 PM72 °FRain. Fog.17 mph91%29.83 "Hg2 mi
9:04 PM75 °FLight rain. Fog.No wind88%29.81 "Hg3 mi
7:53 PM78 °FPartly sunny.5 mph76%29.79 "Hg10 mi
6:53 PM78 °FBroken clouds.7 mph76%29.78 "Hg10 mi
5:53 PM79 °FPartly sunny.9 mph72%29.81 "Hg10 mi
4:53 PM79 °FCloudy.10 mph72%29.81 "Hg10 mi
3:53 PM79 °FBroken clouds.12 mph74%29.82 "Hg10 mi
2:53 PM78 °FPartly sunny.8 mph76%29.83 "Hg10 mi
1:53 PM76 °FLow clouds.10 mph82%29.80 "Hg10 mi
1:04 PM74 °FLow clouds.7 mph88%29.84 "Hg9 mi
12:53 PM74 °FFog.6 mph88%29.83 "Hg6 mi
12:04 PM73 °FRain. Fog.8 mph88%29.92 "Hg2 mi
12:00 PM73 °FRain. Fog.10 mph88%29.92 "Hg3 mi
Weather by CustomWeather, © 2015

See weather overviewHow to use our weather pages